[[{"header":{"parameterUnit":"m.s-1","parameterCategory":1,"la1":30.2992,"la2":30.254,"lo1":-89.0895,"lo2":-89.0443,"dy":0.0025,"dx":0.0025,"nx":19,"ny":19,"refTime":"2026-04-19T09:00:00:Z","depth":0,"parameterNumber":2,"parameterNumberName":"U-component_of_WINDS"},"data":[0,0,0,-7.5782,-7.5786,-7.5938,-7.5938,-7.6177,-7.618,0,0,0,0,0,0,0,0,0,0,0,-7.5764,-7.5767,-7.5782,-7.5786,-7.5938,-7.5938,-7.6177,-7.618,0,0,0,0,0,0,0,0,0,0,0,-7.5763,-7.5766,-7.5769,-7.5787,-7.5938,-7.5938,-7.6176,-7.6046,0,0,0,0,0,0,0,0,0,0,-7.5891,-7.59,-7.5765,-7.5769,-7.5788,-7.5938,-7.5938,-7.6039,-7.6054,-7.6128,0,-7.62,0,-7.6194,-7.6199,-7.62,0,0,0,-7.5766,-7.5888,-7.5905,-7.577,-7.579,-7.5937,-7.5864,-7.6047,-7.6064,-7.6149,-7.6203,-7.6211,-7.6198,-7.6201,-7.6202,-7.6696,-7.6699,0,0,-7.5758,-7.5806,-7.5893,-7.5917,-7.5896,-7.5859,-7.5869,-7.6057,-7.612,-7.6204,-7.6216,-7.6202,-7.6202,-7.6205,-7.6693,-7.6696,0,0,0,-7.5748,-7.5801,-7.5812,-7.5909,-7.5932,-7.5864,-7.5875,-7.6111,-7.6111,-7.6218,-7.6205,-7.6204,-7.6208,-7.6689,-7.6694,-7.6903,0,0,0,-7.5741,-7.5795,-7.5809,-7.584,-7.593,-7.6024,-7.5927,-7.6098,-7.6117,-7.6204,-7.6204,-7.621,-7.6685,-7.6692,-7.6889,-7.6994,0,0,0,-7.5745,-7.5795,-7.5826,-7.5842,-7.5909,-7.6019,-7.6029,-7.6101,-7.6111,-7.62,-7.6211,-7.6683,-7.669,-7.6877,-7.6974,-7.714,0,0,0,-7.5763,-7.6008,-7.583,-7.6099,-7.5908,-7.6147,-7.6027,-7.6202,-7.6303,-7.6206,-7.6686,-7.6693,-7.6873,-7.6961,-7.7127,-7.729,-7.7361,0,0,-7.6099,-7.605,-7.6204,-7.6049,-7.6332,-7.612,-7.6433,-7.648,-7.6444,-7.6614,-7.6625,-7.6893,-7.6972,-7.7137,-7.7742,-7.7799,0,0,0,-7.6327,-7.6439,-7.6503,-7.6602,-7.6644,-7.669,-7.6683,-7.6701,-7.6843,-7.6541,-7.6995,-7.7041,-7.7136,-7.7211,-7.726,-7.734,-7.673,-7.6729,-7.6728,-7.6872,-7.6814,-7.7066,-7.7027,-7.7125,-7.7117,-7.7191,-7.7214,-7.7125,-7.7234,-7.7285,-7.7659,-7.7749,-7.7785,-7.7869,-7.7364,-7.7365,-7.7365,-7.7366,-7.7361,-7.7511,-7.7389,-7.7591,-7.7528,-7.7697,-7.7699,-7.7632,-7.7781,-7.7615,-7.7696,-7.7522,-7.785,-7.792,-7.7381,-7.7378,-7.7376,-7.7375,-7.7374,-7.7714,-7.7776,-7.7793,-7.7932,-7.8045,-7.7996,-7.8146,-7.8082,-7.8024,-7.8104,-7.8152,-7.8149,-7.8139,-7.8131,-7.8132,-7.8133,-7.8135,-7.8135,-7.8136,-7.8074,-7.8086,-7.822,-7.8287,-7.8343,-7.8409,-7.8405,-7.8459,-7.8503,-7.8445,-7.8445,-7.8349,-7.7892,-7.778,-7.8156,-7.8153,-7.815,-7.8148,-7.8147,-7.8595,-7.8467,-7.8674,-7.8731,-7.8805,-7.8924,-7.8841,-7.8957,-7.8992,-7.9069,-7.8955,-7.8626,-7.8572,-7.8533,-7.844,-7.8964,-7.8964,-7.8964,-7.8964,-7.8895,-7.8861,-7.9059,-7.9154,-7.924,-7.9187,-7.9425,-7.9425,-7.9405,-7.9424,-7.9338,-7.9208,-7.9171,-7.9139,-7.9087,-7.8999,-7.9654,-7.9655,-7.9656,-7.9213,-7.9185,-7.9399,-7.9377,-7.9431,-7.948,-7.9702,-7.9818,-7.9768,-7.9682,-7.9438,-7.9409,-7.9199,-7.9133,-7.9044,-7.8964,-7.8802,0,0]},{"header":{"parameterUnit":"m.s-1","parameterCategory":1,"la1":30.2992,"la2":30.254,"lo1":-89.0895,"lo2":-89.0443,"dy":0.0025,"dx":0.0025,"nx":19,"ny":19,"refTime":"2026-04-19T09:00:00:Z","depth":0,"parameterNumber":3,"parameterNumberName":"V-component_of_WINDS"},"data":[0,0,0,-2.1134,-2.1134,-2.1164,-2.1164,-2.1209,-2.1209,0,0,0,0,0,0,0,0,0,0,0,-2.1129,-2.113,-2.1134,-2.1134,-2.1164,-2.1164,-2.1209,-2.1209,0,0,0,0,0,0,0,0,0,0,0,-2.1129,-2.113,-2.113,-2.1135,-2.1164,-2.1164,-2.1209,-2.1184,0,0,0,0,0,0,0,0,0,0,-2.1154,-2.1154,-2.1129,-2.113,-2.1135,-2.1164,-2.1164,-2.1182,-2.1185,-2.1198,0,-2.1211,0,-2.1211,-2.1213,-2.1213,0,0,0,-2.1131,-2.1152,-2.1156,-2.113,-2.1135,-2.1164,-2.115,-2.1184,-2.1187,-2.1202,-2.1212,-2.1213,-2.1212,-2.1213,-2.1213,-2.1299,-2.13,0,0,-2.1129,-2.1137,-2.1154,-2.1158,-2.1155,-2.1149,-2.1151,-2.1186,-2.1197,-2.1212,-2.1214,-2.1213,-2.1213,-2.1214,-2.1299,-2.1299,0,0,0,-2.1127,-2.1136,-2.1139,-2.1156,-2.1161,-2.115,-2.1152,-2.1196,-2.1196,-2.1215,-2.1213,-2.1214,-2.1214,-2.1298,-2.1299,-2.1334,0,0,0,-2.1126,-2.1135,-2.1138,-2.1144,-2.1161,-2.1179,-2.1161,-2.1193,-2.1197,-2.1213,-2.1214,-2.1215,-2.1297,-2.1299,-2.1332,-2.1349,0,0,0,-2.1126,-2.1135,-2.114,-2.1144,-2.1157,-2.1178,-2.1181,-2.1194,-2.1196,-2.1213,-2.1215,-2.1297,-2.1298,-2.133,-2.1346,-2.1373,0,0,0,-2.1128,-2.1172,-2.1141,-2.1189,-2.1157,-2.12,-2.118,-2.1212,-2.123,-2.1214,-2.1298,-2.1299,-2.1329,-2.1344,-2.1371,-2.1398,-2.141,0,0,-2.1188,-2.1179,-2.1207,-2.118,-2.1231,-2.1195,-2.125,-2.126,-2.1254,-2.1284,-2.1286,-2.1332,-2.1346,-2.1373,-2.1474,-2.1484,0,0,0,-2.1228,-2.1248,-2.126,-2.1278,-2.1286,-2.1294,-2.1294,-2.1297,-2.1323,-2.1271,-2.135,-2.1357,-2.1373,-2.1385,-2.1394,-2.1406,-2.1305,-2.1305,-2.1305,-2.1324,-2.1314,-2.1358,-2.1352,-2.1369,-2.1368,-2.1381,-2.1385,-2.1371,-2.1389,-2.1398,-2.1461,-2.1476,-2.1482,-2.1495,-2.1412,-2.1412,-2.1412,-2.1412,-2.141,-2.1436,-2.1414,-2.145,-2.1439,-2.1468,-2.1468,-2.1456,-2.1482,-2.1454,-2.1467,-2.1438,-2.1493,-2.1504,-2.1415,-2.1414,-2.1414,-2.1414,-2.1413,-2.1472,-2.1482,-2.1485,-2.1509,-2.1528,-2.1519,-2.1544,-2.1533,-2.1523,-2.1536,-2.1543,-2.1543,-2.154,-2.154,-2.154,-2.1541,-2.1541,-2.1541,-2.1541,-2.1534,-2.1536,-2.1559,-2.157,-2.1579,-2.1589,-2.1588,-2.1596,-2.1603,-2.1593,-2.1593,-2.1576,-2.15,-2.1481,-2.1544,-2.1544,-2.1543,-2.1543,-2.1543,-2.1625,-2.1602,-2.1637,-2.1646,-2.1657,-2.1676,-2.1661,-2.1679,-2.1684,-2.1697,-2.1676,-2.1622,-2.1613,-2.1607,-2.1591,-2.1679,-2.1679,-2.1679,-2.1679,-2.1677,-2.1671,-2.1703,-2.1718,-2.1731,-2.172,-2.1758,-2.1757,-2.1752,-2.1754,-2.174,-2.1718,-2.1712,-2.1706,-2.1697,-2.1683,-2.1792,-2.1792,-2.1792,-2.1732,-2.1726,-2.1761,-2.1755,-2.1763,-2.1769,-2.1804,-2.1822,-2.1811,-2.1796,-2.1756,-2.1751,-2.1715,-2.1705,-2.1689,-2.1676,-2.1649,0,0]}]]